Tracking 35334 objects as of 13-Sep-2026
HD Live streaming from Space Station
objects crossing your sky now

MARISAT 1

Track MARISAT 1 now!
MARISAT 1 is classified as:


NORAD ID: 8697
Int'l Code: 1976-017A
Launch date: February 19, 1976
Source: United States (US)
Launch site: AIR FORCE EASTERN TEST RANGE (AFETR)
Your satellite tracking list
Your tracking list is empty




NASA's NSSDC Master Catalog

Two Line Element Set (TLE):
1 08697U 76017A   26255.80113212  .00000043  00000-0  00000-0 0  9996
2 08697   5.6247 294.4517 0011833 210.3557 175.4556  0.99205681182977
Source of the keplerian elements: AFSPC